Regional Weather Roundup
Issued by NWS

Home | Current Version | Previous Version | Text Only | Print | Product List | Glossary On
Versions: 1 2 3 4 5 6 7 8 9 10 11 12 13 14 15 16 17 18 19 20 21 22 23 24 25 26 27 28 29 30 31 32 33 34 35 36 37 38 39 40 41 42 43 44 45 46 47
000
ASUS42 KKEY 251810
RWRKEY

FLORIDA REGIONAL WEATHER ROUNDUP FOR THE FLORIDA KEYS
NATIONAL WEATHER SERVICE KEY WEST FLORIDA
200 PM EDT SAT APR 25 2015

...SOUTH FLORIDA AND THE KEYS...

CITY           SKY/WX    TMP DP  RH WIND       PRES   REMARKS
FORT MYERS     SUNNY     91  69  48 SW15      29.92S HX  96
SW REGIONAL AP SUNNY     89  70  53 SW16      29.93F HX  94
NAPLES         MOSUNNY   87  74  64 W10       29.93F HX  95
MIAMI          PTSUNNY   88  74  63 S9        29.92F HX  96
WEST KENDALL   PTSUNNY   90  73  57 SW12      29.92F HX  98
HOMESTEAD      MOSUNNY   90  74  60 S12       29.92F HX  99
MARATHON       SUNNY     90  76  63 VRB6      29.93F HX 101
BOCA CHICA NAS SUNNY     86  72  62 S8        29.93F HX  92
KEY WEST INTL  SUNNY     84  74  71 S8        29.94F HX  91

...INTERNATIONAL WEATHER...

CITY           SKY/WX    TMP DP  RH WIND       PRES   REMARKS
NASSAU BAHAMAS MOSUNNY   86  75  70 S6        29.95F HX  95
CANCUN MEXICO  MOSUNNY   90  73  58 S14       29.89F HX  98
COZUMEL MEXICO MOSUNNY   88  73  62 SE14      29.91F HX  96

ADJACENT COASTAL WATERS...

STATION/POSITION TIME  SKY/WX   TEMP    WIND        PRES    WAVE
                                AIR SEA DIR/SP/G            HT/PER
                 (UTC)          (F)     (DEG/KT/KT) (MB)    (FT/S)
PULASKI SHOAL LI 1700            81     180/  9/ 10 1013.8F
SAND KEY         1750            81     190/  6/  7 1013.7F
SOMBRERO KEY     1800            83     190/  7/  9 1014.3F
LONG KEY         1700            82 87  190/  8/  9 1014.8F
MOLASSES REEF    1800            81 82  210/  9/ 10 1013.9R
FOWEY ROCKS      NOT AVBL

$$


USA.gov is the U.S. government's official web portal to all federal, state and local government web resources and services.